Weather History for Ainsworth, NE

Change the Weather History Date:

Saturday, April 5, 2014

  Actual Average Record
Temperature  
Mean Temperature 50 °F -  
Max Temperature 66 °F 50 °F 82 °F (2006)
Min Temperature 33 °F 30 °F 19 °F (2007)
Degree Days  
Heating Degree Days 16    
Moisture  
Dew Point 27 °F    
Average Humidity 43    
Maximum Humidity 67    
Minimum Humidity 23    
Precipitation  
Precipitation 0.00 in - - ()
Sea Level Pressure  
Sea Level Pressure 29.86 in    
Wind  
Wind Speed 13 mph (South)    
Max Wind Speed 28 mph    
Max Gust Speed 36 mph    
Visibility 10 miles    
Events      
Averages and records for this station are not official NWS values.
T = Trace of Precipitation, MM = Missing Value Source: NWS Daily Summary

Daily Weather History Graph

Daily Weather History Graph

Search for Another Location

Airport:

Trip Planner

Search our weather history database for the weather conditions in past years. The results will help you decide how hot, cold, wet, or windy it might be!

Date:

Astronomy

Apr. 05, 2014 Rise Set
Actual Time 7:15 AM CDT 8:10 PM CDT
Civil Twilight 6:46 AM CDT 8:39 PM CDT
Nautical Twilight 6:12 AM CDT 9:13 PM CDT
Astronomical Twilight 5:37 AM CDT 9:49 PM CDT
Moon 11:20 AM CDT (4/5) 1:26 AM CDT (4/5)
Length of Visible Light 13h 52m
Length of Day
12h 55m
Waxing Crescent, 34% of the Moon is Illuminated
Apr 5
Waxing Crescent
Apr 7
First Quarter
Apr 15
Full
Apr 22
Last Quarter
Apr 29
New

Hourly Weather History & Observations

Time (CDT) Temp. Windchill Dew Point Humidity Pressure Visibility Wind Dir Wind Speed Gust Speed Precip Events Conditions
12:15 AM 34.7 °F 28.1 °F 23.4 °F 63% 29.97 in 10.0 mi SSE 8.1 mph - N/A   Clear
12:35 AM 33.4 °F 25.4 °F 23.4 °F 67% 29.97 in 10.0 mi SSE 10.4 mph - N/A   Clear
12:55 AM 34.2 °F 26.2 °F 23.4 °F 65% 29.97 in 10.0 mi South 10.4 mph - N/A   Clear
1:15 AM 34.3 °F 27.0 °F 23.0 °F 63% 29.96 in 10.0 mi South 9.2 mph - N/A   Clear
1:35 AM 36.7 °F 28.9 °F 23.0 °F 58% 29.96 in 10.0 mi South 11.5 mph - N/A   Clear
1:55 AM 38.8 °F 29.7 °F 22.5 °F 52% 29.96 in 10.0 mi South 17.3 mph 20.7 mph N/A   Clear
2:15 AM 38.3 °F 30.5 °F 22.6 °F 53% 29.96 in 10.0 mi South 12.7 mph - N/A   Clear
2:35 AM 38.3 °F 30.9 °F 23.0 °F 54% 29.95 in 10.0 mi South 11.5 mph - N/A   Clear
2:55 AM 38.8 °F 30.4 °F 24.4 °F 56% 29.95 in 10.0 mi South 15.0 mph - N/A   Clear
3:15 AM 38.3 °F 30.1 °F 24.6 °F 58% 29.94 in 10.0 mi South 13.8 mph - N/A   Clear
3:35 AM 36.7 °F 28.9 °F 24.8 °F 62% 29.94 in 10.0 mi South 11.5 mph - N/A   Clear
3:55 AM 36.7 °F 28.9 °F 25.5 °F 64% 29.93 in 10.0 mi South 11.5 mph - N/A   Clear
4:15 AM 36.9 °F 29.1 °F 26.1 °F 65% 29.92 in 10.0 mi South 11.5 mph - N/A   Clear
4:35 AM 36.9 °F 28.7 °F 26.4 °F 66% 29.92 in 10.0 mi South 12.7 mph - N/A   Clear
4:55 AM 37.8 °F 29.4 °F 26.2 °F 63% 29.91 in 10.0 mi South 13.8 mph - N/A   Clear
5:15 AM 39.0 °F 30.3 °F 25.7 °F 59% 29.90 in 10.0 mi South 16.1 mph - N/A   Clear
5:35 AM 38.8 °F 30.4 °F 25.5 °F 59% 29.90 in 10.0 mi South 15.0 mph - N/A   Clear
5:55 AM 38.7 °F 29.5 °F 25.2 °F 58% 29.89 in 10.0 mi South 17.3 mph 21.9 mph N/A   Clear
6:15 AM 38.5 °F 28.9 °F 25.2 °F 59% 29.89 in 10.0 mi South 18.4 mph 24.2 mph N/A   Clear
6:35 AM 38.3 °F 28.7 °F 25.2 °F 59% 29.88 in 10.0 mi South 18.4 mph - N/A   Clear
6:55 AM 37.8 °F 28.6 °F 25.2 °F 60% 29.89 in 10.0 mi South 16.1 mph - N/A   Clear
7:15 AM 37.8 °F 28.3 °F 25.5 °F 61% 29.88 in 10.0 mi South 17.3 mph 23.0 mph N/A   Clear
7:35 AM 38.3 °F 29.0 °F 25.7 °F 61% 29.88 in 10.0 mi South 17.3 mph - N/A   Clear
7:55 AM 39.2 °F 30.5 °F 26.2 °F 60% 29.89 in 10.0 mi SSW 16.1 mph 23.0 mph N/A   Clear
8:15 AM 40.8 °F 32.0 °F 26.6 °F 57% 29.89 in 10.0 mi SSW 18.4 mph 24.2 mph N/A   Clear
8:35 AM 42.3 °F 33.3 °F 26.6 °F 54% 29.88 in 10.0 mi SSW 20.7 mph 25.3 mph N/A   Clear
8:55 AM 43.9 °F 35.2 °F 27.0 °F 51% 29.88 in 10.0 mi SSW 21.9 mph 27.6 mph N/A   Clear
9:15 AM 46.4 °F 37.5 °F 26.1 °F 45% 29.88 in 10.0 mi SSW 27.6 mph - N/A   Clear
9:35 AM 48.2 °F - 25.5 °F 41% 29.87 in 10.0 mi SSW 25.3 mph 34.5 mph N/A   Clear
9:55 AM 49.6 °F - 25.5 °F 39% 29.87 in 10.0 mi SSW 26.5 mph 35.7 mph N/A   Clear
10:15 AM 50.7 °F - 25.7 °F 38% 29.87 in 10.0 mi SSW 26.5 mph 32.2 mph N/A   Clear
10:35 AM 51.8 °F - 25.7 °F 36% 29.87 in 10.0 mi SSW 23.0 mph 33.4 mph N/A   Clear
10:55 AM 52.9 °F - 26.1 °F 35% 29.87 in 10.0 mi SSW 21.9 mph 28.8 mph N/A   Clear
11:15 AM 53.8 °F - 26.2 °F 35% 29.87 in 10.0 mi SSW 21.9 mph 28.8 mph N/A   Clear
11:35 AM 54.7 °F - 26.4 °F 34% 29.86 in 10.0 mi South 20.7 mph - N/A   Clear
11:55 AM 57.0 °F - 27.7 °F 33% 29.85 in 10.0 mi SSW 20.7 mph - N/A   Clear
12:15 PM 57.0 °F - 27.1 °F 32% 29.85 in 10.0 mi SSW 15.0 mph 23.0 mph N/A   Clear
12:35 PM 58.6 °F - 27.7 °F 31% 29.84 in 10.0 mi South 17.3 mph 23.0 mph N/A   Clear
12:55 PM 59.9 °F - 27.7 °F 29% 29.84 in 10.0 mi South 16.1 mph - N/A   Clear
1:15 PM 61.2 °F - 27.7 °F 28% 29.84 in 10.0 mi SSW 13.8 mph 21.9 mph N/A   Clear
1:35 PM 61.7 °F - 27.5 °F 27% 29.83 in 10.0 mi SSW 15.0 mph - N/A   Clear
1:55 PM 62.6 °F - 28.2 °F 27% 29.83 in 10.0 mi South 13.8 mph 18.4 mph N/A   Clear
2:15 PM 63.5 °F - 27.7 °F 26% 29.82 in 10.0 mi SSW 15.0 mph 20.7 mph N/A   Clear
2:35 PM 63.9 °F - 28.0 °F 26% 29.82 in 10.0 mi South 11.5 mph 18.4 mph N/A   Clear
2:55 PM 64.9 °F - 28.4 °F 25% 29.81 in 10.0 mi South 16.1 mph 20.7 mph N/A   Clear
3:15 PM 64.2 °F - 27.5 °F 25% 29.81 in 10.0 mi South 13.8 mph 17.3 mph N/A   Clear
3:35 PM 63.9 °F - 27.5 °F 25% 29.80 in 10.0 mi SSW 15.0 mph 19.6 mph N/A   Clear
3:55 PM 66.2 °F - 28.0 °F 24% 29.79 in 10.0 mi SSW 13.8 mph 18.4 mph N/A   Clear
4:15 PM 66.0 °F - 27.3 °F 23% 29.78 in 10.0 mi SSW 16.1 mph - N/A   Clear
4:35 PM 66.4 °F - 27.0 °F 23% 29.78 in 10.0 mi South 12.7 mph - N/A   Clear
4:55 PM 65.7 °F - 28.9 °F 25% 29.78 in 10.0 mi South 16.1 mph 21.9 mph N/A   Clear
5:15 PM 64.8 °F - 28.6 °F 26% 29.78 in 10.0 mi South 15.0 mph 20.7 mph N/A   Clear
5:35 PM 66.0 °F - 28.0 °F 24% 29.78 in 10.0 mi South 12.7 mph 20.7 mph N/A   Clear
5:55 PM 65.8 °F - 27.0 °F 23% 29.78 in 10.0 mi South 11.5 mph - N/A   Clear
6:15 PM 65.8 °F - 26.8 °F 23% 29.78 in 10.0 mi SSW 11.5 mph - N/A   Clear
6:35 PM 65.3 °F - 27.3 °F 24% 29.78 in 10.0 mi South 12.7 mph - N/A   Clear
6:55 PM 62.8 °F - 27.0 °F 26% 29.78 in 10.0 mi SSW 5.8 mph - N/A   Clear
7:15 PM 61.7 °F - 28.0 °F 28% 29.79 in 10.0 mi South 8.1 mph - N/A   Clear
7:35 PM 61.2 °F - 27.0 °F 27% 29.80 in 10.0 mi South 6.9 mph - N/A   Clear
7:55 PM 59.4 °F - 27.5 °F 30% 29.80 in 10.0 mi SSW 8.1 mph - N/A   Clear
8:15 PM 58.1 °F - 29.7 °F 34% 29.80 in 10.0 mi SSW 15.0 mph - N/A   Clear
8:35 PM 58.1 °F - 28.4 °F 32% 29.82 in 10.0 mi NNE 6.9 mph - N/A   Scattered Clouds
8:55 PM 59.5 °F - 26.8 °F 29% 29.83 in 10.0 mi NE 10.4 mph - N/A   Scattered Clouds
9:15 PM 55.4 °F - 27.7 °F 35% 29.83 in 10.0 mi NNE 11.5 mph - N/A   Clear
9:35 PM 53.1 °F - 28.9 °F 40% 29.84 in 10.0 mi NE 6.9 mph - N/A   Clear
9:55 PM 52.0 °F - 29.8 °F 43% 29.85 in 10.0 mi NNE 4.6 mph - N/A   Clear
10:15 PM 49.5 °F - 30.0 °F 47% 29.85 in 10.0 mi NE 3.5 mph - N/A   Clear
10:35 PM 54.5 °F - 28.4 °F 37% 29.85 in 10.0 mi Calm Calm - N/A   Clear
10:55 PM 46.8 °F - 28.6 °F 49% 29.85 in 10.0 mi NNE 4.6 mph - N/A   Clear
11:15 PM 44.8 °F 39.4 °F 29.7 °F 55% 29.85 in 10.0 mi North 10.4 mph - N/A   Clear
11:35 PM 42.4 °F 37.5 °F 28.6 °F 58% 29.85 in 10.0 mi North 8.1 mph - N/A   Clear
11:55 PM 43.2 °F 39.0 °F 29.3 °F 58% 29.85 in 10.0 mi NNW 6.9 mph - N/A   Clear